TVF78LR LFBO-LFPO

Flight info

Callsign TVF78LR
Flight time 0h 54m
Altitude 28000
Route FISTO DCT PERIG DCT DIBAG DCT TUDRA DCT BEVOL UR158 AMB
Aircraft B738/M-SDFGHIJ1RWY/LB1

Departure

Time 2026-05-05 16:25
Airport Toulouse-Blagnac Airport (LFBO)

Arrival

Time 2026-05-05 17:20
Airport Paris-Orly Airport (LFPO)
Time Latitude Longitude Altitude Speed Heading
2026-05-05 15:49 43.62996 1.37264 498 ft 0 kts 53°
2026-05-05 16:16 43.62978 1.37232 498 ft 2 kts 60°
2026-05-05 16:17 43.62974 1.37192 498 ft 2 kts 104°
2026-05-05 16:17 43.62980 1.37173 498 ft 2 kts 123°
2026-05-05 16:18 43.62993 1.37154 498 ft 0 kts 143°
2026-05-05 16:18 43.62994 1.37154 498 ft 0 kts 144°
2026-05-05 16:20 43.62965 1.37183 498 ft 5 kts 144°
2026-05-05 16:20 43.62877 1.37146 498 ft 10 kts 229°
2026-05-05 16:21 43.62759 1.37090 498 ft 10 kts 143°
2026-05-05 16:22 43.62548 1.37310 500 ft 18 kts 143°
2026-05-05 16:22 43.62341 1.37524 502 ft 13 kts 143°
2026-05-05 16:23 43.62212 1.37658 502 ft 9 kts 143°
2026-05-05 16:23 43.62159 1.37659 503 ft 7 kts 207°
2026-05-05 16:23 43.62130 1.37613 503 ft 4 kts 234°
2026-05-05 16:24 43.62104 1.37564 503 ft 6 kts 235°
2026-05-05 16:24 43.62082 1.37514 503 ft 5 kts 263°
2026-05-05 16:24 43.62095 1.37473 503 ft 2 kts 321°
2026-05-05 16:25 43.62245 1.37317 502 ft 63 kts 321°
2026-05-05 16:25 43.63620 1.35899 697 ft 161 kts 320°
2026-05-05 16:25 43.64498 1.35008 1530 ft 154 kts 320°
2026-05-05 16:26 43.66108 1.33180 2889 ft 155 kts 319°
2026-05-05 16:26 43.67835 1.31296 3921 ft 178 kts 320°
2026-05-05 16:27 43.68882 1.30154 4340 ft 199 kts 320°
2026-05-05 16:27 43.69977 1.28952 5011 ft 208 kts 320°
2026-05-05 16:27 43.71128 1.27673 5650 ft 220 kts 320°
2026-05-05 16:27 43.72463 1.26473 6131 ft 240 kts 335°
2026-05-05 16:28 43.74096 1.25927 6884 ft 247 kts 349°
2026-05-05 16:28 43.75864 1.25501 7259 ft 270 kts 346°
2026-05-05 16:28 43.77748 1.25045 8015 ft 277 kts 351°
2026-05-05 16:28 43.79667 1.24851 8778 ft 284 kts 355°
2026-05-05 16:29 43.81674 1.24759 9551 ft 290 kts 356°
2026-05-05 16:29 43.83696 1.24669 10330 ft 295 kts 355°
2026-05-05 16:29 43.85749 1.24574 11127 ft 299 kts 355°
2026-05-05 16:29 43.87823 1.24476 11925 ft 303 kts 355°
2026-05-05 16:30 43.89943 1.24375 12710 ft 309 kts 355°
2026-05-05 16:30 43.92079 1.24272 13498 ft 313 kts 355°
2026-05-05 16:30 43.94262 1.24166 14295 ft 317 kts 355°
2026-05-05 16:30 43.96486 1.24058 15108 ft 322 kts 355°
2026-05-05 16:31 43.98760 1.23947 15596 ft 336 kts 355°
2026-05-05 16:31 44.01147 1.23828 16033 ft 351 kts 355°
2026-05-05 16:31 44.03642 1.23705 16509 ft 365 kts 355°
2026-05-05 16:31 44.06204 1.23581 16980 ft 378 kts 356°
2026-05-05 16:32 44.08870 1.23452 17482 ft 389 kts 355°
2026-05-05 16:32 44.11598 1.23323 18118 ft 396 kts 356°
2026-05-05 16:32 44.14382 1.23191 18929 ft 398 kts 356°
2026-05-05 16:32 44.17160 1.23059 19695 ft 401 kts 356°
2026-05-05 16:33 44.19938 1.22926 20344 ft 407 kts 356°
2026-05-05 16:33 44.22780 1.22789 21029 ft 411 kts 357°
2026-05-05 16:33 44.25629 1.22652 21705 ft 414 kts 357°
2026-05-05 16:33 44.28542 1.22512 22365 ft 418 kts 357°
2026-05-05 16:34 44.31439 1.22371 23004 ft 422 kts 357°
2026-05-05 16:34 44.34401 1.22227 23655 ft 425 kts 358°
2026-05-05 16:34 44.37328 1.22086 24208 ft 430 kts 358°
2026-05-05 16:34 44.40328 1.21943 24715 ft 434 kts 358°
2026-05-05 16:35 44.43398 1.21798 25245 ft 438 kts 357°
2026-05-05 16:35 44.46450 1.21652 25752 ft 442 kts 357°
2026-05-05 16:35 44.49546 1.21504 26311 ft 444 kts 357°
2026-05-05 16:35 44.52617 1.21358 27094 ft 439 kts 356°
2026-05-05 16:36 44.55646 1.21213 27743 ft 438 kts 356°
2026-05-05 16:36 44.58675 1.21068 28368 ft 437 kts 356°
2026-05-05 16:36 44.61709 1.20922 28964 ft 436 kts 356°
2026-05-05 16:36 44.64731 1.20775 29553 ft 434 kts 356°
2026-05-05 16:37 44.67713 1.20629 30090 ft 433 kts 356°
2026-05-05 16:37 44.70726 1.20482 30599 ft 433 kts 356°
2026-05-05 16:37 44.73725 1.20335 31075 ft 432 kts 356°
2026-05-05 16:37 44.76745 1.20187 31456 ft 433 kts 356°
2026-05-05 16:38 44.79742 1.20039 31823 ft 433 kts 356°
2026-05-05 16:38 44.82754 1.19891 31891 ft 436 kts 356°
2026-05-05 16:38 44.88768 1.19596 31900 ft 431 kts 356°
2026-05-05 16:39 44.94749 1.19299 31892 ft 430 kts 356°
2026-05-05 16:39 45.00717 1.19003 31890 ft 429 kts 356°
2026-05-05 16:40 45.06680 1.18706 31893 ft 429 kts 356°
2026-05-05 16:40 45.12648 1.18409 31887 ft 428 kts 356°
2026-05-05 16:41 45.18604 1.18111 31886 ft 428 kts 357°
2026-05-05 16:41 45.24533 1.17815 31891 ft 428 kts 357°
2026-05-05 16:42 45.30513 1.17515 31899 ft 428 kts 357°
2026-05-05 16:42 45.36442 1.17217 31889 ft 427 kts 357°
2026-05-05 16:43 45.42388 1.16918 31887 ft 427 kts 357°
2026-05-05 16:43 45.48314 1.16619 31887 ft 426 kts 357°
2026-05-05 16:44 45.54233 1.16319 31882 ft 426 kts 357°
2026-05-05 16:44 45.60175 1.16018 31892 ft 424 kts 357°
2026-05-05 16:45 45.66028 1.15721 31900 ft 425 kts 357°
2026-05-05 16:45 45.71924 1.15422 31885 ft 423 kts 358°
2026-05-05 16:46 45.77831 1.15121 31885 ft 423 kts 357°
2026-05-05 16:46 45.83720 1.14820 31889 ft 423 kts 357°
2026-05-05 16:47 45.89576 1.14520 31887 ft 422 kts 358°
2026-05-05 16:47 45.95445 1.14219 31888 ft 422 kts 358°
2026-05-05 16:48 46.01297 1.13918 31872 ft 421 kts 358°
2026-05-05 16:48 46.07125 1.13617 31862 ft 420 kts 358°
2026-05-05 16:49 46.12986 1.13315 31867 ft 421 kts 358°
2026-05-05 16:49 46.18829 1.13014 31877 ft 422 kts 358°
2026-05-05 16:50 46.24709 1.12710 31865 ft 421 kts 358°
2026-05-05 16:50 46.30535 1.12407 31873 ft 421 kts 358°
2026-05-05 16:51 46.36411 1.12102 31860 ft 421 kts 358°
2026-05-05 16:51 46.42265 1.11797 31861 ft 421 kts 359°
2026-05-05 16:52 46.48101 1.11491 31866 ft 419 kts 359°
2026-05-05 16:52 46.53914 1.11187 31859 ft 419 kts 359°
2026-05-05 16:53 46.59712 1.10884 31857 ft 418 kts 359°
2026-05-05 16:53 46.65505 1.10580 31850 ft 417 kts 359°
2026-05-05 16:54 46.71301 1.10275 31854 ft 417 kts 359°
2026-05-05 16:54 46.77130 1.09967 31771 ft 427 kts 359°
2026-05-05 16:55 46.80114 1.09813 31550 ft 443 kts 360°
2026-05-05 16:55 46.83241 1.09652 31328 ft 456 kts 360°
2026-05-05 16:55 46.86438 1.09484 31093 ft 457 kts
2026-05-05 16:55 46.89594 1.09315 30861 ft 454 kts
2026-05-05 16:56 46.92751 1.09144 30629 ft 453 kts
2026-05-05 16:56 46.95888 1.08974 30372 ft 453 kts
2026-05-05 16:56 46.99014 1.08835 30114 ft 453 kts
2026-05-05 16:56 47.02114 1.09482 29850 ft 448 kts 17°
2026-05-05 16:57 47.05110 1.10688 29600 ft 452 kts 18°
2026-05-05 16:57 47.08158 1.11932 29343 ft 452 kts 17°
2026-05-05 16:57 47.11167 1.13129 29091 ft 451 kts 17°
2026-05-05 16:57 47.14167 1.14295 28830 ft 449 kts 17°
2026-05-05 16:58 47.17194 1.15451 28571 ft 447 kts 17°
2026-05-05 16:58 47.20194 1.16580 28311 ft 446 kts 16°
2026-05-05 16:58 47.23183 1.17694 28050 ft 446 kts 16°
2026-05-05 16:58 47.26199 1.18809 27832 ft 444 kts 16°
2026-05-05 16:59 47.29211 1.19918 27822 ft 442 kts 16°
2026-05-05 16:59 47.32175 1.21009 27822 ft 448 kts 16°
2026-05-05 16:59 47.35252 1.22143 27781 ft 448 kts 16°
2026-05-05 16:59 47.38232 1.23237 27154 ft 444 kts 16°
2026-05-05 17:00 47.41237 1.24366 26009 ft 451 kts 16°
2026-05-05 17:00 47.44281 1.25535 24938 ft 455 kts 16°
2026-05-05 17:00 47.47324 1.26718 24169 ft 451 kts 16°
2026-05-05 17:00 47.50325 1.27890 23388 ft 448 kts 16°
2026-05-05 17:01 47.53322 1.29063 22922 ft 437 kts 16°
2026-05-05 17:01 47.56192 1.30186 22558 ft 426 kts 16°
2026-05-05 17:01 47.59042 1.31303 22067 ft 418 kts 16°
2026-05-05 17:01 47.61838 1.32400 21531 ft 412 kts 15°
2026-05-05 17:02 47.64584 1.33479 20980 ft 407 kts 15°
2026-05-05 17:02 47.67290 1.34544 20435 ft 403 kts 15°
2026-05-05 17:02 47.69981 1.35604 19887 ft 398 kts 15°
2026-05-05 17:02 47.72627 1.36646 19343 ft 394 kts 15°
2026-05-05 17:03 47.75280 1.37691 18799 ft 393 kts 14°
2026-05-05 17:03 47.77940 1.38740 18246 ft 399 kts 14°
2026-05-05 17:03 47.80612 1.39794 17682 ft 396 kts 14°
2026-05-05 17:03 47.83233 1.40829 17126 ft 392 kts 14°
2026-05-05 17:04 47.85865 1.41869 16563 ft 388 kts 14°
2026-05-05 17:04 47.88434 1.42886 16014 ft 384 kts 14°
2026-05-05 17:04 47.91011 1.43907 15454 ft 380 kts 14°
2026-05-05 17:04 47.93554 1.44915 14898 ft 377 kts 14°
2026-05-05 17:05 47.96065 1.45911 14346 ft 373 kts 14°
2026-05-05 17:05 47.98531 1.46889 13805 ft 369 kts 14°
2026-05-05 17:05 48.01026 1.47881 13261 ft 367 kts 14°
2026-05-05 17:05 48.03462 1.48851 12793 ft 366 kts 14°
2026-05-05 17:06 48.05915 1.49828 12364 ft 365 kts 14°
2026-05-05 17:06 48.08349 1.50799 11987 ft 361 kts 14°
2026-05-05 17:06 48.10782 1.51771 11613 ft 361 kts 13°
2026-05-05 17:06 48.13198 1.52737 11237 ft 358 kts 13°
2026-05-05 17:07 48.15588 1.53694 10864 ft 356 kts 13°
2026-05-05 17:07 48.18006 1.54663 10488 ft 355 kts 13°
2026-05-05 17:07 48.20364 1.55608 10117 ft 352 kts 13°
2026-05-05 17:07 48.22723 1.56560 9833 ft 349 kts 14°
2026-05-05 17:08 48.24969 1.57827 9810 ft 338 kts 24°
2026-05-05 17:08 48.26936 1.59542 9814 ft 320 kts 32°
2026-05-05 17:08 48.28709 1.61409 9813 ft 303 kts 35°
2026-05-05 17:08 48.30372 1.63244 9821 ft 289 kts 35°
2026-05-05 17:09 48.31981 1.64992 9824 ft 287 kts 34°
2026-05-05 17:09 48.33627 1.66730 9765 ft 289 kts 34°
2026-05-05 17:09 48.35265 1.68433 9517 ft 286 kts 34°
2026-05-05 17:09 48.36823 1.70273 9268 ft 281 kts 40°
2026-05-05 17:10 48.38260 1.72198 9019 ft 279 kts 41°
2026-05-05 17:10 48.39680 1.74172 8771 ft 276 kts 41°
2026-05-05 17:10 48.41071 1.76135 8513 ft 273 kts 41°
2026-05-05 17:10 48.42445 1.78101 8191 ft 270 kts 42°
2026-05-05 17:11 48.43797 1.80042 7861 ft 269 kts 42°
2026-05-05 17:11 48.45153 1.81993 7533 ft 268 kts 42°
2026-05-05 17:11 48.46492 1.83927 7211 ft 266 kts 42°
2026-05-05 17:11 48.47847 1.85756 6908 ft 263 kts 38°
2026-05-05 17:12 48.49258 1.87482 6628 ft 260 kts 37°
2026-05-05 17:12 48.50653 1.89171 6351 ft 257 kts 37°
2026-05-05 17:12 48.52040 1.90865 6071 ft 254 kts 37°
2026-05-05 17:12 48.53394 1.92531 5793 ft 252 kts 37°
2026-05-05 17:13 48.54727 1.94185 5519 ft 249 kts 37°
2026-05-05 17:13 48.56057 1.95831 5241 ft 246 kts 37°
2026-05-05 17:13 48.57362 1.97441 4967 ft 242 kts 37°
2026-05-05 17:13 48.58659 1.99025 4728 ft 237 kts 37°
2026-05-05 17:14 48.59961 2.00516 4517 ft 229 kts 33°
2026-05-05 17:14 48.61185 2.02019 4318 ft 223 kts 44°
2026-05-05 17:14 48.62076 2.03890 4142 ft 219 kts 56°
2026-05-05 17:14 48.62786 2.05869 3994 ft 211 kts 58°
2026-05-05 17:15 48.63434 2.07744 3946 ft 195 kts 58°
2026-05-05 17:15 48.64072 2.09526 3694 ft 191 kts 57°
2026-05-05 17:15 48.64707 2.11280 3420 ft 190 kts 57°
2026-05-05 17:15 48.65324 2.13003 3167 ft 186 kts 57°
2026-05-05 17:16 48.65939 2.14720 2902 ft 183 kts 57°
2026-05-05 17:16 48.66537 2.16394 2646 ft 180 kts 57°
2026-05-05 17:16 48.67122 2.18031 2400 ft 176 kts 57°
2026-05-05 17:16 48.67689 2.19618 2217 ft 161 kts 57°
2026-05-05 17:17 48.68212 2.21080 1953 ft 154 kts 57°
2026-05-05 17:17 48.68698 2.22448 1695 ft 142 kts 57°
2026-05-05 17:17 48.69158 2.23732 1550 ft 140 kts 57°
2026-05-05 17:17 48.69620 2.25022 1360 ft 139 kts 57°
2026-05-05 17:18 48.70088 2.26323 1149 ft 138 kts 57°
2026-05-05 17:18 48.70536 2.27587 992 ft 139 kts 58°
2026-05-05 17:18 48.70995 2.28879 803 ft 139 kts 58°
2026-05-05 17:18 48.71449 2.30152 612 ft 140 kts 58°
2026-05-05 17:19 48.71920 2.31475 417 ft 141 kts 59°
2026-05-05 17:19 48.72306 2.32565 284 ft 139 kts 59°
2026-05-05 17:19 48.72696 2.33663 285 ft 76 kts 60°
2026-05-05 17:19 48.72917 2.34284 287 ft 53 kts 62°
2026-05-05 17:20 48.72992 2.34567 288 ft 23 kts 77°
2026-05-05 17:20 48.73016 2.34811 288 ft 23 kts 81°
2026-05-05 17:20 48.73038 2.35012 289 ft 13 kts 81°
2026-05-05 17:20 48.73042 2.35137 289 ft 11 kts 99°
2026-05-05 17:21 48.73011 2.35241 289 ft 10 kts 124°
2026-05-05 17:21 48.72953 2.35305 288 ft 10 kts 154°
2026-05-05 17:21 48.72897 2.35372 288 ft 10 kts 131°
2026-05-05 17:22 48.72774 2.35469 288 ft 10 kts 154°
2026-05-05 17:22 48.72756 2.35563 288 ft 10 kts 76°
2026-05-05 17:22 48.72776 2.35666 288 ft 10 kts 73°
2026-05-05 17:22 48.72794 2.35757 288 ft 6 kts 73°
2026-05-05 17:23 48.72795 2.35812 288 ft 4 kts 123°
2026-05-05 17:23 48.72776 2.35839 288 ft 2 kts 141°